GW6458 Weather Reports


time (UTC)temp
C
wind
direction
speed
KPH
gust
KPH
rain 1hr
cm
rain 24hr
cm
rain mn
cm
humidity
%
barometer
mb
20260506135458 21 41 11.3 19.3 0.00 0.03 0.00 53 1004.4
20260506134954 21 79 8.0 19.3 0.00 0.03 0.00 55 1004.4
20260506134913 21 63 8.0 16.1 0.00 0.03 0.00 54 1004.4
20260506133951 21 0 9.7 14.5 0.00 0.03 0.00 57 1004.5
20260506133453 20 7 4.8 9.7 0.00 0.03 0.00 58 1004.6
20260506132951 20 6 3.2 16.1 0.00 0.03 0.00 56 1004.6
20260506132450 20 0 11.3 16.1 0.00 0.03 0.00 56 1004.7
20260506131949 20 25 8.0 19.3 0.00 0.03 0.00 57 1004.6
20260506131449 20 78 9.7 19.3 0.00 0.03 0.00 57 1004.6
20260506130953 20 127 0.0 11.3 0.00 0.03 0.00 53 1004.7
20260506130450 20 178 3.2 11.3 0.00 0.03 0.00 56 1004.8
20260506125950 20 89 1.6 17.7 0.00 0.03 0.00 56 1004.9
20260506125451 20 114 3.2 17.7 0.00 0.03 0.00 56 1004.9
20260506124949 20 75 6.4 14.5 0.00 0.03 0.00 57 1004.9
20260506124451 19 85 8.0 9.7 0.00 0.03 0.00 59 1005.1
20260506123953 19 148 0.0 3.2 0.00 0.03 0.00 57 1005.2
20260506123447 20 141 0.0 4.8 0.00 0.03 0.00 58 1005.2
20260506122945 19 18 1.6 4.8 0.00 0.03 0.00 59 1005.2
20260506122446 19 113 1.6 4.8 0.00 0.03 0.00 58 1005.3
20260506121954 19 56 3.2 12.9 0.00 0.03 0.00 61 1005.3
20260506121454 19 113 3.2 12.9 0.00 0.03 0.00 56 1005.4
20260506120952 19 107 0.0 11.3 0.00 0.03 0.00 57 1005.4
20260506120507 19 6 3.2 4.8 0.00 0.03 0.00 63 1005.5
20260506120452 19 86 6.4 11.3 0.00 0.03 0.00 58 1005.4
20260506115446 18 113 0.0 14.5 0.00 0.03 0.00 59 1005.5
20260506114944 18 113 1.6 16.1 0.00 0.03 0.00 56 1005.3
20260506114445 18 80 8.0 16.1 0.00 0.03 0.00 56 1005.2
20260506113944 18 120 4.8 16.1 0.00 0.03 0.00 56 1005.3
20260506113445 18 87 6.4 14.5 0.00 0.03 0.00 59 1005.4
20260506113021 18 254 0.0 8.0 0.00 0.03 0.00 58 1006.1
20260506112952 18 111 4.8 9.7 0.00 0.03 0.00 57 1005.7
20260506111944 18 261 3.2 4.8 0.00 0.03 0.00 59 1006.3
20260506111443 19 32 1.6 8.0 0.00 0.03 0.00 60 1006.3
20260506111424 18 30 3.2 9.7 0.00 0.03 0.00 63 1006.3
20260506110442 18 4 3.2 9.7 0.00 0.03 0.00 63 1006.4
20260506105942 18 96 3.2 9.7 0.00 0.03 0.00 66 1006.5
20260506105440 18 49 3.2 9.7 0.00 0.03 0.00 64 1006.5
20260506104945 18 78 4.8 9.7 0.00 0.03 0.00 63 1006.4
20260506104441 18 183 0.0 9.7 0.00 0.03 0.00 63 1006.4
20260506104431 18 110 0.0 9.7 0.00 0.03 0.00 59 1006.5
20260506103441 18 138 1.6 4.8 0.00 0.03 0.00 59 1006.6
20260506102943 18 237 1.6 8.0 0.00 0.03 0.00 64 1006.7
20260506102446 18 39 0.0 9.7 0.00 0.03 0.00 65 1006.9
20260506101943 18 61 4.8 9.7 0.00 0.03 0.00 66 1006.9
20260506101442 18 66 4.8 8.0 0.00 0.03 0.00 64 1006.9
20260506101026 18 107 3.2 9.7 0.00 0.03 0.00 63 1006.9
20260506100950 18 71 3.2 8.0 0.00 0.03 0.00 66 1006.9
20260506095944 18 23 1.6 11.3 0.00 0.03 0.00 64 1006.8
20260506095648 18 79 4.8 11.3 0.00 0.03 0.00 65 1006.9
20260506094908 18 344 0.0 3.2 0.00 0.03 0.00 65 1007.0
20260506093939 18 340 1.6 8.0 0.00 0.03 0.00 68 1006.8
20260506093442 17 3 3.2 11.3 0.00 0.03 0.00 65 1006.7
20260506093426 17 55 6.4 11.3 0.00 0.03 0.00 69 1006.7
20260506092446 17 73 6.4 11.3 0.00 0.03 0.00 67 1006.9
20260506091936 17 59 4.8 11.3 0.00 0.03 0.00 68 1006.8
20260506091437 17 100 4.8 11.3 0.00 0.03 0.00 69 1006.8
20260506090938 17 120 0.0 4.8 0.00 0.03 0.00 69 1006.9
20260506090444 17 157 0.0 4.8 0.00 0.03 0.00 70 1006.9
20260506085939 17 37 0.0 4.8 0.00 0.03 0.00 70 1007.0
20260506085438 17 37 1.6 8.0 0.00 0.03 0.00 67 1007.1
20260506084936 17 38 3.2 8.0 0.00 0.03 0.00 67 1007.1
20260506084433 17 262 1.6 3.2 0.00 0.03 0.00 68 1007.0
20260506083931 17 283 0.0 3.2 0.00 0.03 0.00 66 1007.2
20260506083433 17 281 0.0 3.2 0.00 0.03 0.00 69 1007.1
20260506082930 16 255 1.6 3.2 0.00 0.03 0.00 68 1007.1
20260506082905 16 255 0.0 4.8 0.00 0.03 0.00 69 1007.1
20260506081935 16 255 1.6 4.8 0.00 0.03 0.00 69 1007.0
20260506081434 17 251 3.2 4.8 0.00 0.03 0.00 71 1007.1
20260506080935 16 345 0.0 3.2 0.00 0.03 0.00 70 1007.0
20260506080432 16 341 1.6 4.8 0.00 0.03 0.00 71 1007.1
20260506073426 15 27 0.0 8.0 0.00 0.03 0.00 78 1007.4
20260506072925 14 221 0.0 3.2 0.00 0.03 0.00 81 1007.5
20260506072426 13 221 0.0 3.2 0.00 0.03 0.00 81 1007.4
20260506071931 13 219 1.6 4.8 0.00 0.03 0.00 81 1007.6
20260506071634 13 219 1.6 4.8 0.00 0.03 0.00 82 1007.7
20260506070423 13 199 0.0 1.6 0.00 0.03 0.00 81 1007.6
20260506062422 11 199 0.0 0.0 0.00 0.03 0.00 92 1007.6
20260506061923 11 199 0.0 0.0 0.00 0.03 0.00 93 1007.7
20260506061443 11 220 0.0 0.0 0.00 0.03 0.00 93 1007.8
20260506061424 11 199 0.0 0.0 0.00 0.03 0.00 93 1007.8
20260506060612 10 220 0.0 0.0 0.00 0.03 0.00 93 1007.7
20260506060508 10 220 0.0 0.0 0.00 0.03 0.00 94 1007.6
20260506050915 8 219 0.0 3.2 0.00 0.03 0.00 93 1007.8
20260506050908 7 219 0.0 3.2 0.00 0.03 0.00 93 1007.8
20260506044915 7 220 0.0 3.2 0.00 0.03 0.00 93 1007.7
20260506044421 7 220 0.0 3.2 0.00 0.03 0.00 93 1008.1
20260506043913 7 220 1.6 3.2 0.00 0.03 0.00 93 1007.9
20260506043413 7 220 0.0 3.2 0.00 0.03 0.00 93 1008.1
20260506042914 7 219 0.0 1.6 0.00 0.03 0.00 93 1008.1
20260506042415 7 219 0.0 0.0 0.00 0.03 0.00 92 1008.1
20260506041916 7 219 0.0 0.0 0.00 0.03 0.00 92 1008.2
20260506041412 7 219 0.0 0.0 0.00 0.03 0.00 92 1008.1
20260506040912 7 219 0.0 0.0 0.00 0.03 0.00 92 1007.9
20260506040412 7 219 0.0 1.6 0.00 0.03 0.00 93 1008.1
20260506035914 7 219 0.0 3.2 0.00 0.03 0.00 93 1007.9
20260506035414 7 219 0.0 3.2 0.00 0.03 0.00 93 1007.9
20260506034913 7 219 1.6 3.2 0.00 0.03 0.00 93 1007.9
20260506034414 7 219 0.0 0.0 0.00 0.03 0.00 93 1008.3
20260506034328 7 219 0.0 0.0 0.00 0.03 0.00 93 1008.3
20260506033409 6 219 0.0 0.0 0.00 0.03 0.00 93 1008.3
20260506032909 6 219 0.0 0.0 0.00 0.03 0.00 93 1008.3
20260506032410 6 219 0.0 0.0 0.00 0.03 0.00 92 1008.4
20260506031912 6 219 0.0 0.0 0.00 0.03 0.00 92 1008.5
20260506031409 6 219 0.0 1.6 0.00 0.03 0.00 91 1008.5
20260506030915 6 219 0.0 1.6 0.00 0.03 0.00 91 1008.5
20260506030411 6 219 0.0 0.0 0.00 0.03 0.00 91 1008.5
20260506025908 6 219 0.0 0.0 0.00 0.03 0.00 90 1008.4
20260506025409 6 219 0.0 0.0 0.00 0.03 0.00 90 1008.5
20260506024908 6 219 0.0 0.0 0.00 0.03 0.00 90 1008.4
20260506024843 6 219 0.0 0.0 0.00 0.03 0.00 90 1008.4
20260506023914 6 219 0.0 0.0 0.00 0.03 0.00 89 1008.5
20260506023901 6 219 0.0 0.0 0.00 0.03 0.00 89 1008.4
20260506022910 7 219 0.0 0.0 0.00 0.03 0.00 89 1008.4
20260506022412 7 219 0.0 1.6 0.00 0.03 0.00 89 1008.5
20260506021908 7 219 0.0 1.6 0.00 0.03 0.00 90 1008.4
20260506021410 7 219 0.0 0.0 0.00 0.03 0.00 90 1008.4
20260506021335 7 219 0.0 0.0 0.00 0.03 0.00 90 1008.4
20260506020857 7 219 0.0 1.6 0.00 0.03 0.00 90 1008.4
20260506015857 8 219 0.0 1.6 0.00 0.03 0.00 90 1008.5
20260506015355 8 219 0.0 0.0 0.00 0.03 0.00 90 1008.5
20260506014853 8 219 0.0 0.0 0.00 0.03 0.00 89 1008.6
20260506014353 8 219 0.0 0.0 0.00 0.03 0.00 89 1008.7
20260506013853 8 219 0.0 0.0 0.00 0.03 0.00 89 1008.7
20260506013353 8 219 0.0 1.6 0.00 0.03 0.00 89 1008.7
20260506012854 8 219 0.0 1.6 0.00 0.03 0.00 89 1008.7
20260506012352 8 219 0.0 0.0 0.00 0.03 0.00 88 1008.8
20260506011853 8 219 0.0 0.0 0.00 0.03 0.00 87 1008.8
20260506011350 9 219 0.0 0.0 0.00 0.03 0.00 86 1008.7
20260506010854 10 0 0.0 0.0 0.00 0.03 0.00 87 1008.6
20260506010351 10 220 0.0 1.6 0.00 0.03 0.00 87 1008.6
20260506005853 10 220 0.0 3.2 0.00 0.03 0.00 87 1008.7
20260506005349 10 220 0.0 3.2 0.00 0.03 0.00 88 1008.7
20260506004852 10 220 0.0 1.6 0.00 0.03 0.00 88 1008.7
20260506004346 10 220 0.0 3.2 0.00 0.03 0.00 88 1008.7
20260506003849 10 220 0.0 3.2 0.00 0.03 0.00 88 1008.7
20260506003347 10 220 1.6 3.2 0.00 0.03 0.00 88 1008.8
20260506002847 11 220 1.6 3.2 0.00 0.03 0.00 88 1008.9
20260506002816 11 220 1.6 3.2 0.00 0.03 0.00 88 1008.9
20260506002344 11 220 0.0 3.2 0.00 0.03 0.00 88 1008.8
20260506001347 11 220 1.6 3.2 0.00 0.03 0.00 88 1008.9
20260506000845 11 220 1.6 4.8 0.00 0.03 0.00 88 1008.9
20260506000411 11 221 3.2 4.8 0.00 0.03 0.00 88 1008.9
20260506000354 11 220 1.6 4.8 0.00 0.03 0.00 88 1008.9
20260505235811 11 237 0.0 1.6 0.00 0.03 0.00 88 1009.0
20260505234840 11 237 0.0 1.6 0.00 0.03 0.00 88 1009.0
20260505234339 11 237 0.0 8.0 0.00 0.03 0.00 88 1009.0
20260505233839 11 237 1.6 8.0 0.00 0.03 0.00 89 1009.0
20260505233343 11 237 1.6 4.8 0.00 0.03 0.00 89 1009.1
20260505232846 11 237 0.0 3.2 0.00 0.03 0.00 89 1009.1
20260505232341 11 237 1.6 4.8 0.00 0.03 0.00 88 1009.2
20260505231840 11 237 1.6 4.8 0.00 0.03 0.00 88 1009.2
20260505231338 11 237 0.0 1.6 0.00 0.03 0.00 88 1009.1
20260505230837 12 237 0.0 1.6 0.00 0.03 0.00 88 1009.2
20260505230355 12 237 0.0 0.0 0.00 0.03 0.00 88 1009.2
20260505225844 12 237 0.0 1.6 0.00 0.03 0.00 88 1009.2
20260505225352 12 234 0.0 3.2 0.00 0.03 0.00 88 1009.2
20260505224901 12 234 1.6 3.2 0.00 0.03 0.00 87 1009.3
20260505224357 12 235 1.6 3.2 0.00 0.03 0.00 86 1009.3
20260505223858 12 235 0.0 1.6 0.00 0.03 0.00 85 1009.0
20260505223659 13 235 0.0 3.2 0.00 0.03 0.00 83 1008.9
20260505223431 13 235 0.0 1.6 0.00 0.03 0.00 84 1008.9
20260505222914 13 235 0.0 1.6 0.00 0.03 0.00 83 1008.8
20260505222247 13 235 1.6 8.0 0.00 0.03 0.00 82 1009.0
20260505221931 13 235 1.6 4.8 0.00 0.03 0.00 83 1008.8
20260505220834 13 234 0.0 14.5 0.00 0.03 0.00 82 1009.1
20260505220402 13 237 6.4 14.5 0.00 0.03 0.00 82 1009.1
20260505215854 13 230 3.2 11.3 0.00 0.03 0.03 81 1009.0
20260505215353 13 245 6.4 11.3 0.00 0.03 0.03 81 1009.1
20260505214855 13 228 4.8 11.3 0.00 0.03 0.03 82 1009.1
20260505214543 13 204 1.6 4.8 0.00 0.03 0.03 82 1009.0
20260505213858 13 204 1.6 8.0 0.00 0.03 0.03 82 1009.1
20260505212926 13 264 3.2 11.3 0.00 0.03 0.03 83 1008.9
20260505212839 13 264 3.2 12.9 0.00 0.03 0.03 82 1009.0
20260505212409 13 266 8.0 12.9 0.00 0.03 0.03 82 1009.0
20260505211903 13 268 4.8 11.3 0.00 0.03 0.03 82 1009.0
20260505211418 13 261 4.8 11.3 0.00 0.03 0.03 82 1008.9
20260505210427 13 259 4.8 12.9 0.00 0.03 0.03 84 1009.0
20260505205846 13 224 4.8 12.9 0.00 0.03 0.03 84 1008.9
20260505205349 13 226 6.4 11.3 0.00 0.03 0.03 84 1008.9
20260505204844 13 238 1.6 9.7 0.00 0.03 0.03 84 1008.8
20260505204326 13 244 3.2 11.3 0.00 0.03 0.03 84 1008.7
20260505203832 13 231 1.6 11.3 0.00 0.03 0.03 85 1008.6
20260505203333 11 276 1.6 4.8 0.00 0.03 0.03 88 1007.6
20260505203325 13 233 3.2 8.0 0.00 0.03 0.03 85 1008.4
20260505202849 13 216 1.6 8.0 0.00 0.03 0.03 85 1008.4
20260505202509 13 233 1.6 8.0 0.00 0.03 0.03 86 1008.3
20260505201853 13 241 3.2 8.0 0.00 0.03 0.03 87 1008.2
20260505201344 12 268 1.6 11.3 0.00 0.03 0.03 88 1008.1
20260505200847 12 240 8.0 11.3 0.00 0.03 0.03 89 1008.2
20260505200411 12 250 4.8 9.7 0.00 0.03 0.03 89 1007.8
20260505195907 12 258 1.6 4.8 0.00 0.03 0.03 88 1007.7
20260505194317 11 38 1.6 3.2 0.00 0.03 0.03 86 1007.4
20260505193828 12 45 0.0 4.8 0.00 0.03 0.03 86 1007.1
20260505193316 12 45 0.0 4.8 0.00 0.03 0.03 85 1007.1
20260505192816 12 45 4.8 4.8 0.00 0.03 0.03 85 1007.1
20260505192323 12 290 0.0 4.8 0.00 0.03 0.03 86 1007.2
20260505192255 12 288 3.2 3.2 0.00 0.03 0.03 85 1007.1
20260505191318 12 286 0.0 4.8 0.00 0.03 0.03 85 1007.2
20260505190843 13 285 1.6 8.0 0.00 0.03 0.03 83 1007.1
20260505190819 12 288 3.2 4.8 0.00 0.03 0.03 84 1007.2
20260505190448 12 285 3.2 4.8 0.00 0.03 0.03 83 1007.2
20260505185305 13 285 3.2 8.0 0.00 0.03 0.03 82 1007.1
20260505184810 13 286 3.2 4.8 0.00 0.03 0.03 82 1007.0
20260505184302 13 288 3.2 9.7 0.00 0.03 0.03 81 1007.0
20260505183849 13 274 4.8 12.9 0.00 0.03 0.03 80 1006.9
20260505183814 13 295 1.6 11.3 0.00 0.03 0.03 81 1006.9
20260505182949 14 274 8.0 11.3 0.00 0.03 0.03 79 1006.8
20260505182944 15 262 8.0 14.5 0.00 0.03 0.03 78 1006.7
20260505182844 14 281 8.0 12.9 0.00 0.03 0.03 79 1006.8
20260505181330 15 266 6.4 14.5 0.00 0.03 0.03 77 1006.6
20260505180807 15 266 8.0 12.9 0.00 0.03 0.03 77 1006.5
20260505180319 15 274 4.8 9.7 0.00 0.03 0.03 78 1006.4
20260505175756 15 281 1.6 4.8 0.00 0.03 0.03 80 1006.5
20260505175309 15 292 1.6 4.8 0.03 0.03 0.03 81 1006.5
20260505175115 15 340 0.0 3.2 0.03 0.03 0.03 82 1006.5
20260505174832 15 333 1.6 3.2 0.03 0.03 0.03 82 1006.5
20260505173757 15 341 1.6 3.2 0.03 0.03 0.03 82 1006.5
20260505173257 15 341 0.0 4.8 0.03 0.03 0.03 83 1006.5
20260505172815 15 358 3.2 4.8 0.03 0.03 0.03 83 1006.3
20260505172254 15 244 1.6 3.2 0.03 0.03 0.03 83 1006.5
20260505171754 15 227 0.0 8.0 0.03 0.03 0.03 82 1006.6
20260505171310 15 227 3.2 8.0 0.03 0.03 0.03 80 1006.7
20260505170815 15 224 3.2 8.0 0.03 0.03 0.03 82 1006.9
20260505170328 15 223 4.8 8.0 0.03 0.03 0.03 81 1006.8
20260505165810 15 192 0.0 4.8 0.00 0.00 0.00 79 1006.9
20260505165331 15 144 0.0 3.2 0.00 0.00 0.00 76 1006.7
20260505165306 15 144 0.0 1.6 0.00 0.00 0.00 76 1006.8
20260505164249 15 224 0.0 4.8 0.00 0.00 0.00 74 1006.9
20260505163756 16 230 0.0 11.3 0.00 0.00 0.00 74 1006.9
20260505163300 16 188 3.2 12.9 0.00 0.00 0.00 72 1007.0
20260505162754 16 248 1.6 17.7 0.00 0.00 0.00 71 1006.7
20260505162243 16 237 9.7 17.7 0.00 0.00 0.00 69 1006.8
20260505161755 17 234 9.7 24.1 0.00 0.00 0.00 68 1006.8
20260505161248 17 171 11.3 24.1 0.00 0.00 0.00 65 1006.9
20260505161008 17 245 12.9 24.1 0.00 0.00 0.00 65 1006.5
20260505160807 17 255 14.5 19.3 0.00 0.00 0.00 65 1006.6
20260505153248 18 261 17.7 27.4 0.00 0.00 0.00 60 1005.7
20260505152801 19 272 12.9 29.0 0.00 0.00 0.00 59 1005.6
20260505152245 20 264 16.1 30.6 0.00 0.00 0.00 56 1005.7
20260505151744 20 266 19.3 32.2 0.00 0.00 0.00 52 1005.6
20260505151237 21 254 20.9 32.2 0.00 0.00 0.00 50 1005.5
20260505150857 21 245 6.4 14.5 0.00 0.00 0.00 43 1005.3
20260505150827 22 204 3.2 14.5 0.00 0.00 0.00 45 1005.2
20260505150741 21 305 11.3 17.7 0.00 0.00 0.00 48 1005.3
20260505150419 21 248 11.3 16.1 0.00 0.00 0.00 47 1005.3